Погода Дивное

Погода Дивное : погода сейчас, прогноз погоды и архив. Всё, что Вы хотите узнать о погоде Дивное!

Хотите узнать прогноз погоды Дивное? Тогда Вам сюда: Погода Дивное

Поиск расширенной информации на нашем сайте:

Другие новости

Новости СМИ2

Главная страница сайта

Новости сайта

03.07.2017

Напоминаем, что на нашем специализированном сайте Метеоцентр.Азия вы можете получить высокодетализированные автоматические прогнозы погоды по пунктам России, СНГ и мира в авиационном формате (включающие направление и скорость ветра, видимость, явления погоды, количество и форму облачности, нижнюю и верхнюю границу облачности).


Погода Дивное - сегодня

Время (UTC), дата Ветер
(°,м/с) 
Видим.   Явления Облачность Т
(°С)
Тd
(°С)
f(%) Тe
(°С)
Pmin
(гПа)
dP
(гПа)
Po
(мм)
O2
(г/м3)
Тmin Tmax R s Состояние
почвы
03 22.11.17 260 (З) 4000 м  дымка  10/10 300 м 
[St]
+2.8 +0 82 -1  1006.6  3.4  747  298  +2.8    0.6     
06 22.11.17 260 (З) 6-11{18}  4000 м  дымка  10/6 600 м средняя 
[Sc|Ac As]
+3.1 -0.2 79 1009.9  3.3  749  299           
09 22.11.17 270 (З) 6-13{15}  10 км    10/0 средняя 
[Ac As]
+3.2 -3.2 63 1011.4  1.6  751  299           
12 22.11.17 270 (З) 6-10{14}  10 км    9/0 средняя 
[Ac As]
+4.6 -3.1 57 +2  1012.6  1.2  751  298           
15 22.11.17 260 (З) 4{10}  10 км    9/0 средняя 
[Ac As]
+2.9 -3.1 65 +1  1013.4  0.7  752  300    +4.7       
18 22.11.17 250 (З) 10 км    ясно 
+0.3 -3.8 74 1014.1  0.7  752  303           
21 22.11.17 280 (З) 4000 м  дымка  ясно 
-1.4 -4.9 77 -2  1014  -0.3  752  305           
00 23.11.17 210 (ЮЗ) 2000 м  дымка  3/0 средняя 
[Ac trans]
-3.1 -3.5 97 -4  1014.5  0.4  753  307           
03 23.11.17 210 (ЮЗ) 2000 м  дымка  10/0 средняя 
[Ac As]
-3 -3.2 99 -4  1014.6  -0.1  753  307  -3.3         
06 23.11.17 280 (З) 2000 м  дымка  10/0 средняя 
[Ac As]
-0.4 -1.5 92 1015  0.5  753  304           
09 23.11.17 300 (СЗ) 10 км    10/0 средняя 
[Ac As]
+1.1 -3.2 73 1015.3  0.4  753  303           
12 23.11.17 230 (ЮЗ) 10 км    10/6 600 м средняя 
[Sc|Ac As]
+1.3 -2.5 76 +2  1016.5  0.4  754  303           
15 23.11.17 190 (Ю) 2000 м  дымка{снег}  8/0 средняя 
[Ac trans]
-0.8 -0.9 99 -2  1018.3  1.7  755  305    +1.6  0.0     
18 23.11.17 230 (ЮЗ) 10 км  {снег}  4/0 верхняя 
[Ci fib]
-0.9 -4.8 75 -2  1019.3  756  306           
21 23.11.17 200 (Ю) 4000 м  дымка  ясно 
-4 -5.7 88 -4  1020.2  0.7  757  310           
00 24.11.17 210 (ЮЗ) 2000 м  дымка  ясно 
-4.6 -5 97 -6  1020.4  0.2  757  311           
03 24.11.17 200 (Ю) 2000 м  дымка  6/0 средняя 
[Ac trans]
-2.9 -3.4 96 -2  1020.9  0.6  757  309  -4.7         
06 24.11.17 170 (Ю) 2000 м  слаб. снег  10/0 средняя 
[As op]
-1.8 -2.4 96 -1  1022.3  1.4  758  308           
09 24.11.17 160 (Ю) 4000 м  дымка{снег}  8/0 средняя 
[Ac trans]
+0.6 -3.1 76 -1  1022.2  758  305           
12 24.11.17 140 (ЮВ) 10 км  {снег}  8/0 средняя 
[Ac As]
+0.6 -3.8 72 1022.2  758  305           
15 24.11.17 150 (ЮВ) 4000 м  слаб. снег  10/0 средняя 
[As op]
-0.3 -4.4 74 1023.8  1.6  760  307    +1.7  0.0     
18 24.11.17 160 (Ю) 2000 м  дымка{снег}  10/0 средняя 
[As op]
-1.8 -2.3 96 -1  1025.4  1.4  761  309           
21 24.11.17 170 (Ю) 1000 м  дымка  6/0 средняя 
[As trans]
-3.5 -3.5 100 -3  1026.8  1.4  762  311           
00 25.11.17 240 (ЮЗ) 1000 м  дымка  10/0 средняя 
[As trans]
-2.2 -2.2 100 -3  1028.1  1.3  763  310           
03 25.11.17 220 (ЮЗ) 1000 м  дымка  10/0 средняя 
[As trans]
-3.8 -3.8 100 -6  1030.3  2.1  764  313  -4.4    0.0     
Время (UTC), дата Ветер
(°,м/с) 
Видим.   Явления Облачность Т
(°С)
Тd
(°С)
f(%) Тe
(°С)
Pmin
(гПа)
dP
(гПа)
Po
(мм)
O2
(г/м3)
Тmin Tmax R s Состояние
почвы

Для получения пояснительной информации подведите курсор к названию столбца.

ПОГОДА Дивное - архив

Всё, что Вы хотите узнать о погоде Дивное - удобно и подробно!

Выберите нужную дату (начиная с 1 января 2015* года) и нажмите кнопку "Найти".
Будут отображены архивные сводки погоды по пункту Дивное, начиная с указанной даты.


Отображать данные в формате CSV (для использования в таблицах Excel)


Внимание! Наш архив погоды предназначен исключительно для личного некоммерческого использования в познавательных целях. Если Вам необходимы официальные справки о состоянии погоды (для производственных, юридических, коммерческих и т.п. целей), обращайтесь в органы Росгидромета.

*Примечание: данная дата относится к архиву по метеостанциям СССР (Россия, СНГ, Балтия).
Архив по метеостанциям Зарубежной Европы и Азии (кроме Китая) хранится 10 дней, по другим регионам земного шара (Китай, Африка, Америка, Австралия, Океания) - 1 день.

Дивное - район местоположения метеостанции


Название, широта, долгота, высота метеостанции:
Дивное 45.9°ш. 43.3°д. 87 м над ур. моря [Российская Федерация]

Дополнительная информация

В oтличие oт бoльшинства пoгoдных сайтoв мы публикуем пoдрoбную метеoинфoрмацию в детальнoм прoфессиoнальнoм фoрмате.

Характеристики температуры и влажнoсти вoздуха измеряются на высoте 2 м в тени вдали oт зданий и деревьев.
Скoрoсть ветра измеряется на высoте 10 м (на урoвне рoста челoвека скoрoсть ветра ниже в 1.5-2 раза). Если метеoстанция нахoдится в гoрoде или в лесу, тo скoрoсть ветра занижена на 2-4 м/с пo сравнению с oткрытым местoм. Скoрoсть ветра над акватoриями крупных рек и oзёр, а также на вершинах хoлмoв на 2-5 м/с выше, чем в oбычных услoвиях.
Атмoсфернoе давление в разных тoчках местнoсти мoжет значительнo oтличаться oт давления на метеoстанции, в зависимoсти oт услoвий рельефа (при пoдъёме на 10 м давление пoнижается примернo на 1 мм рт.ст.).